Location: Aldenham
(51.6667°N, 0.3500°W)
Time: 16:11:47
(UTC+00:00)

Transit 2A Rocket - Pass Details

Date: 17 February 2026
Orbit: 583 x 900 km, 66.7° (Epoch: 10 March)

Event Time Altitude Azimuth Distance (km) Brightness Sun altitude
Rises 21:18:00 0° 308° (NW) 3,499 9.4 -36.4°
Reaches altitude 10° 21:21:21 10° 325° (NW) 2,525 8.3 -36.9°
Enters shadow 21:24:31 18° 358° (N) 1,951 7.3 -37.3°
